Regional Weather Roundup
Issued by NWS Little Rock, AR

Home | Current Version | Previous Version | Text Only | Print | Product List | Glossary On
Versions: 1 2 3 4 5 6 7 8 9 10 11 12 13 14 15 16 17 18 19 20 21 22 23 24 25 26 27 28 29 30 31 32 33 34 35 36 37 38 39 40 41
000
ASUS44 KLZK 281405
RWRLZK

WEATHER ROUNDUP FOR ARKANSAS
NATIONAL WEATHER SERVICE LITTLE ROCK AR
800 AM CST SUN DEC 28 2014

NOTE: "FAIR" INDICATES FEW OR NO CLOUDS BELOW 12,000 FEET WITH NO
SIGNIFICANT WEATHER AND/OR OBSTRUCTIONS TO VISIBILITY.

ARZ001-003-010-029-281500-
NORTHWEST ARKANSAS

CITY           SKY/WX    TMP DP  RH WIND       PRES   REMARKS
FAYETTEVILLE   CLOUDY    27  26  96 CALM      30.23F
FORT SMITH     CLOUDY    32  27  81 W6        30.28R WCI  26
HARRISON       CLOUDY    28  23  81 NW5       30.22R WCI  23
BENTONVILLE    CLOUDY    27  21  80 CALM      30.24S
ROGERS         CLOUDY    25  24  96 CALM      30.24R
SILOAM SPGS    CLOUDY    27  19  74 CALM      30.26R
HIGHFILL       CLOUDY    27  23  85 CALM      30.23R
SPRINGDALE     CLEAR     28  25  86 CALM      30.25R
$$

ARZ004-005-016-281500-
NORTH CENTRAL ARKANSAS

CITY           SKY/WX    TMP DP  RH WIND       PRES   REMARKS
BATESVILLE     CLOUDY    34  28  80 NW3       30.24R
FLIPPIN        CLOUDY    30  25  80 CALM      30.24R
MTN HOME       CLOUDY    29  25  85 NW5       30.22S WCI  24
$$

ARZ040-041-281500-
WEST CENTRAL ARKANSAS

CITY           SKY/WX    TMP DP  RH WIND       PRES   REMARKS
MENA           CLOUDY    34  30  86 CALM      30.23R
MOUNT IDA      CLOUDY    34  30  85 CALM      30.19F
$$

ARZ009-017-025-026-028-281500-
NORTHEAST ARKANSAS

CITY           SKY/WX    TMP DP  RH WIND       PRES   REMARKS
CORNING        CLOUDY    36  32  87 N6        30.24F
JONESBORO      CLOUDY    36  33  89 N8        30.23F
NEWPORT        CLOUDY    36  33  88 N7        30.24F
WALNUT RIDGE   CLOUDY    36  28  75 N8        30.23F
BLYTHEVILLE    CLOUDY    38  36  92 N15       30.23S
$$

ARZ022-023-033-042-044-281500-
CENTRAL ARKANSAS

CITY           SKY/WX    TMP DP  RH WIND       PRES   REMARKS
LITTLE ROCK    CLOUDY    38  30  73 NW9       30.25R
N LITTLE ROCK  CLOUDY    35  32  90 N7        30.25R WCI  29
JACKSONVILLE   CLOUDY    36  31  81 N7        30.24R
SEARCY         CLOUDY    35  30  82 N6        30.26R WCI  30
HOT SPRINGS    CLOUDY    37  33  85 N6        30.24R
RUSSELLVILLE   CLOUDY    36  28  73 N3        30.26R
CLINTON        FAIR      32  28  86 CALM      30.28R
$$

ARZ036-281500-
EAST ARKANSAS

CITY           SKY/WX    TMP DP  RH WIND       PRES   REMARKS
WEST MEMPHIS   CLOUDY    39  37  92 N10       30.21R
$$

ARZ050-053-066-070-073-281500-
SOUTHWEST ARKANSAS

CITY           SKY/WX    TMP DP  RH WIND       PRES   REMARKS
ARKADELPHIA    CLOUDY    40  39  96 N7        30.26R
CAMDEN         LGT RAIN  41  37  87 MISG      30.24R
TEXARKANA      LGT RAIN  37  35  92 NW10      30.25R
EL DORADO      LGT RAIN  41  39  93 N7        30.24R
DE QUEEN       CLOUDY    36  32  85 CALM      30.23S
$$

ARZ056-057-069-281500-
SOUTHEAST ARKANSAS

CITY           SKY/WX    TMP DP  RH WIND       PRES   REMARKS
PINE BLUFF     CLOUDY    39  35  86 N10       30.24R
STUTTGART      CLOUDY    39  34  81 N14       30.23R
MONTICELLO     LGT RAIN  41  38  89 VRB5      30.21R

$$





USA.gov is the U.S. government's official web portal to all federal, state and local government web resources and services.